Vertical_Velocity
2 1 1 1 0 2 1 -2 1 1 2 3 4 5 3 1 1 2 1 1 0 0 1 1 -0 -1 -0 -4 -5 -2 -3 0 1 0 -0 -4 -3 -2 -1 1 1 -0 3
-1 0 0 -0 -2 -1 -0 1 -0 0 0 1 2 2 3 2 2 2 1 1 1 -0 -0 -0 -1 -0 1 -1 -0 1 1 -0 -2 -2 -1 -6 -6 -2 -1 -1 -0 -0 1
-0 -1 -1 -2 1 -1 -1 -1 -1 -0 -1 -0 2 3 3 3 3 2 2 0 -1 -2 0 1 1 1 0 1 0 -1 -0 1 0 1 0 -1 -1 -5 -0 -0 -1 -1 -2
1 -0 -0 -0 -1 -1 0 -0 -0 1 -0 0 0 -1 -1 -1 -1 -0 0 0 1 -1 -2 -1 -0 1 1 1 1 1 1 2 1 3 0 0 2 -1 -7 -2 0 1 1
-0 -0 0 1 1 1 -1 0 0 1 -0 -1 -0 -1 -1 -2 -0 0 1 -0 -1 -0 -0 -1 -1 -1 -1 -0 0 1 0 2 1 2 3 1 3 4 3 -10 -14 -5 -3
0 1 1 2 1 2 2 1 0 -1 0 -0 -1 -1 -1 -1 1 -0 -1 -1 -1 -1 -1 -1 -0 -1 -1 -1 -0 -0 0 0 1 1 2 4 7 -1 4 5 -2 -5 -7
-0 -0 -0 -0 -0 -1 -0 -0 -0 -1 -1 -0 -0 -1 -2 -1 -2 -2 -2 -1 -0 -1 -1 -1 -1 -1 -1 -0 -0 1 1 1 0 1 -1 3 1 5 8 10 1 1 -7
0 -1 -0 0 -0 -0 0 0 -0 -0 -0 -1 -1 -2 -1 -2 -2 -2 -2 -2 -1 -1 -1 -1 -1 -1 -1 -1 -1 0 0 1 0 3 1 -2 1 3 3 9 8 -4 -4
0 -0 0 -0 0 -0 -1 -1 -1 -1 -1 -1 -1 -1 -1 -0 -1 -1 -2 -3 -2 -1 -1 -2 -1 -0 -1 -1 -1 -1 -1 -0 0 1 1 0 2 -0 -0 2 4 12 -2
1 0 0 0 -1 -0 -0 0 -0 -1 -1 -1 -1 -2 -2 -1 -1 -1 -1 -1 -2 -1 -2 -1 -2 -1 -1 -1 -3 0 -1 -1 -0 -1 -1 1 -0 1 2 1 2 5 10
-0 0 0 -0 -0 -0 -0 -1 -0 -1 -1 -1 -1 -1 -1 -1 -1 -2 -2 -2 -2 -2 -2 -3 -2 -2 -1 -1 -1 -1 -2 -2 -1 -0 -2 -1 -0 -1 0 2 2 -0 7
-0 -1 -1 -1 -1 -1 -1 -1 -1 -1 -2 -2 -2 -2 -2 -2 -2 -2 -2 -2 -1 -1 -2 -2 -2 -2 -2 -2 -2 -2 -1 -2 -2 -1 -0 -2 -1 -1 -0 -1 -0 1 2
-1 -1 -1 -2 -2 -2 -2 -3 -3 -2 -2 -1 -1 -1 -1 -2 -2 -2 -2 -2 -2 -2 -0 -2 -2 -2 -2 -1 0 -2 -1 -1 -2 -2 -2 -2 -1 -1 -1 -1 -1 -1 -0
0 -1 -2 -2 -2 -2 -2 -1 -1 -2 -2 -2 -2 -2 -2 -2 -2 -2 -2 -2 -2 -2 -1 -1 -1 -2 -2 -1 -1 -0 -1 -1 -1 -1 -1 -0 -1 -2 -2 -1 -1 -1 -2
-1 -1 -1 -1 -1 -0 -0 -0 -1 -1 -1 -1 -2 -2 -2 -2 -2 -2 -2 -2 -2 -1 -2 -2 -0 -1 -3 -2 -2 -1 -1 -2 -4 -2 0 1 1 1 1 0 -1 -2 -1
-1 -0 1 1 -0 -1 -1 -1 -0 -1 -1 -1 -1 -1 -1 -0 -1 -2 -2 -2 -2 -2 -2 -1 -3 -1 -2 -1 -0 -1 -1 -1 -4 -6 -1 -1 -1 1 1 1 2 3 -0
0 1 -1 -1 -1 -1 -2 -1 -2 -2 -2 -3 -1 -1 -1 -1 -1 -2 -2 -2 -2 -2 -2 -3 -3 -3 -2 -1 -1 -1 0 -3 -0 -2 -4 -3 -1 -1 -2 1 2 2 2
-0 -0 -2 -1 -0 -1 -1 -1 -1 0 -1 -0 -2 -2 -2 -2 -3 -3 -3 -3 -3 -3 -4 -3 -3 -4 -4 -3 -3 -2 -0 -2 -2 -2 -2 -2 -3 1 -3 -5 -3 1 0
-2 -4 -3 -2 -0 -1 -1 -3 -0 -2 -1 -1 -1 -1 -1 -1 -1 -1 -2 -1 -2 -2 -2 -2 -3 -3 -3 -3 -3 -2 -6 -5 -4 -3 -3 -4 -4 -4 -5 4 0 -4 -3
-2 -3 -1 -2 -3 0 -1 -2 -1 -1 -0 -2 -2 -2 -1 -1 -3 -2 -3 -3 -2 -3 -2 -1 -1 -1 -3 -2 -3 -4 2 -6 -4 -5 -2 -1 1 -2 -4 3 1 -6 -8
-1 -1 -1 -2 -0 -1 -2 -2 -2 -0 -2 -1 -2 -2 -1 -2 -2 -3 -2 -2 -3 -2 -2 -2 -3 -3 -1 -3 -3 -2 -1 -1 -3 2 -5 -7 -8 -5 -4 2 10 7 0
0 2 -2 -2 0 -1 -3 -4 -5 -1 -2 -3 -5 -4 -2 -1 -2 -2 -2 -1 -2 -2 -3 -3 -3 -2 -1 -0 -3 -3 -2 0 2 -2 -2 -10 -10 -3 3 2 -6 4 6
-2 -1 -3 -5 -0 1 1 -3 1 -1 -2 -3 -3 -2 -2 -1 -0 -2 -2 -3 -2 -2 -2 -2 -4 -5 -3 -5 -3 -7 -2 -5 2 -2 -2 3 -1 -4 -17 -9 -5 24 -1
-2 -1 -0 -1 -5 1 0 -0 -1 -0 -2 -3 -2 -1 -2 -1 -3 -3 -2 -1 -1 -2 -2 -2 -4 -5 -6 -7 -9 -9 -11 -3 -7 -15 -7 5 22 15 -8 -12 -11 -4 -4
-0 -1 -3 -2 -4 -1 -3 0 1 2 -3 -1 -2 -2 -1 -1 -2 0 -0 -2 1 -1 -5 -7 -5 -1 -2 -8 -0 20 13 2 7 49 2 -1 -1 -2 -3 -7 -5 0 -1
-0 -1 0 -1 -1 -3 -5 -2 1 1 1 -1 -2 -1 -4 -4 -4 -4 -6 4 1 0 -2 -2 3 -2 -1 3 -7 3 -6 -2 -4 18 1 -1 -3 -5 -4 -5 -7 -7 -5
Height
1574 1571 1568 1565 1563 1561 1558 1556 1554 1553 1553 1553 1555 1555 1555 1555 1556 1556 1556 1557 1557 1557 1557 1557 1558 1558 1559 1559 1560 1561 1561 1562 1562 1562 1561 1560 1559 1559 1560 1561 1562 1563 1564
1575 1573 1570 1567 1564 1562 1559 1557 1555 1554 1552 1553 1553 1553 1554 1554 1554 1554 1555 1556 1556 1556 1557 1557 1557 1557 1558 1559 1559 1559 1559 1560 1561 1561 1561 1559 1556 1555 1556 1557 1557 1558 1558
1577 1575 1572 1569 1567 1563 1561 1559 1557 1556 1554 1554 1553 1553 1553 1553 1553 1553 1554 1554 1555 1556 1555 1555 1556 1556 1556 1557 1558 1558 1558 1558 1559 1559 1561 1559 1556 1554 1553 1553 1553 1552 1554
1579 1577 1575 1572 1569 1566 1564 1562 1560 1558 1557 1556 1554 1553 1552 1553 1553 1553 1553 1553 1553 1554 1554 1554 1554 1554 1554 1554 1555 1555 1555 1555 1555 1556 1557 1557 1556 1555 1552 1551 1550 1550 1550
1580 1578 1576 1574 1572 1569 1566 1564 1562 1560 1559 1557 1556 1555 1554 1554 1554 1554 1553 1553 1552 1552 1552 1552 1552 1552 1552 1551 1551 1551 1552 1552 1552 1552 1552 1552 1552 1552 1551 1546 1546 1546 1546
1580 1579 1578 1575 1573 1571 1568 1566 1564 1561 1560 1559 1558 1556 1556 1555 1555 1554 1553 1552 1551 1550 1549 1549 1548 1548 1548 1548 1548 1547 1547 1547 1548 1548 1548 1548 1548 1547 1547 1544 1541 1540 1540
1580 1579 1577 1575 1573 1571 1569 1567 1565 1563 1562 1560 1559 1558 1557 1556 1555 1553 1552 1551 1550 1549 1548 1546 1545 1545 1544 1543 1543 1543 1542 1542 1542 1542 1542 1543 1542 1542 1541 1539 1536 1534 1533
1579 1578 1577 1575 1573 1572 1570 1568 1566 1565 1563 1562 1560 1559 1558 1556 1555 1554 1552 1551 1549 1547 1546 1545 1544 1542 1541 1540 1539 1538 1537 1537 1537 1537 1536 1536 1537 1536 1535 1535 1534 1529 1526
1579 1578 1577 1576 1574 1572 1571 1569 1567 1566 1564 1562 1561 1559 1558 1556 1555 1554 1552 1551 1549 1547 1545 1543 1541 1540 1538 1537 1535 1534 1533 1532 1531 1530 1529 1529 1529 1529 1529 1529 1529 1527 1521
1579 1578 1578 1576 1575 1573 1572 1570 1568 1566 1564 1562 1561 1559 1557 1556 1554 1552 1551 1549 1547 1545 1543 1541 1539 1537 1535 1533 1532 1530 1528 1527 1526 1524 1523 1522 1521 1521 1521 1521 1521 1521 1518
1578 1578 1577 1576 1574 1573 1571 1570 1568 1566 1565 1563 1561 1559 1557 1555 1553 1551 1549 1547 1545 1543 1541 1538 1536 1534 1532 1530 1528 1526 1524 1523 1521 1520 1518 1516 1515 1513 1512 1512 1512 1511 1511
1576 1577 1576 1575 1573 1572 1570 1568 1567 1565 1563 1561 1560 1558 1556 1554 1551 1549 1547 1544 1542 1540 1537 1535 1533 1531 1528 1526 1524 1522 1520 1517 1516 1514 1512 1511 1509 1507 1506 1504 1503 1503 1503
1575 1576 1575 1573 1572 1570 1568 1567 1564 1562 1561 1559 1557 1555 1553 1551 1549 1546 1544 1541 1539 1537 1534 1531 1529 1526 1524 1522 1520 1518 1515 1513 1511 1508 1506 1505 1502 1500 1499 1498 1496 1494 1493
1574 1574 1574 1572 1570 1568 1565 1564 1562 1560 1558 1556 1554 1552 1550 1547 1545 1543 1540 1538 1535 1532 1530 1527 1525 1522 1519 1517 1515 1513 1510 1508 1505 1503 1501 1499 1497 1494 1492 1491 1490 1487 1485
1572 1572 1570 1569 1567 1565 1563 1561 1559 1557 1555 1553 1551 1548 1546 1543 1541 1538 1536 1533 1530 1528 1525 1522 1519 1517 1514 1512 1509 1507 1504 1501 1498 1496 1494 1492 1490 1488 1487 1485 1483 1481 1479
1569 1569 1568 1566 1564 1562 1560 1558 1556 1553 1551 1549 1547 1545 1542 1539 1536 1533 1530 1528 1525 1522 1520 1517 1514 1511 1507 1506 1503 1501 1498 1494 1491 1487 1486 1484 1483 1481 1479 1477 1476 1476 1473
1565 1565 1564 1562 1560 1558 1556 1554 1552 1549 1547 1544 1542 1540 1537 1534 1531 1528 1525 1523 1520 1516 1513 1510 1507 1505 1502 1499 1496 1495 1492 1487 1484 1482 1479 1476 1475 1473 1470 1469 1468 1467 1466
1561 1561 1559 1558 1556 1554 1552 1550 1547 1545 1543 1541 1539 1536 1533 1530 1527 1524 1521 1518 1515 1511 1508 1504 1501 1498 1495 1493 1490 1488 1485 1481 1478 1475 1473 1470 1467 1466 1463 1461 1459 1458 1456
1557 1556 1554 1552 1550 1548 1546 1544 1543 1541 1539 1536 1534 1532 1529 1525 1522 1519 1516 1513 1509 1506 1502 1499 1496 1493 1490 1486 1484 1483 1479 1475 1472 1470 1467 1465 1462 1460 1459 1458 1453 1449 1447
1551 1550 1548 1546 1545 1543 1541 1539 1537 1535 1533 1531 1529 1526 1523 1519 1516 1513 1511 1507 1504 1500 1497 1494 1491 1488 1484 1482 1479 1479 1476 1471 1467 1465 1461 1460 1459 1457 1455 1452 1448 1442 1440
1546 1545 1543 1541 1540 1538 1536 1534 1532 1530 1527 1525 1522 1519 1517 1514 1510 1507 1505 1501 1498 1494 1491 1488 1485 1483 1480 1476 1474 1474 1471 1468 1463 1460 1456 1453 1451 1450 1448 1446 1442 1438 1436
1542 1541 1538 1537 1535 1533 1531 1528 1526 1524 1521 1518 1515 1513 1510 1507 1503 1500 1497 1494 1491 1488 1485 1481 1478 1477 1474 1472 1469 1468 1467 1464 1459 1455 1451 1447 1445 1443 1441 1438 1435 1432 1430
1538 1536 1534 1531 1530 1528 1525 1521 1520 1517 1514 1511 1508 1505 1502 1500 1497 1493 1490 1487 1484 1481 1478 1474 1471 1469 1468 1465 1463 1462 1459 1458 1454 1450 1446 1442 1439 1436 1433 1430 1428 1425 1419
1533 1531 1528 1525 1523 1522 1519 1516 1513 1510 1506 1503 1500 1497 1493 1490 1487 1485 1483 1480 1477 1474 1471 1468 1466 1463 1461 1458 1456 1454 1451 1449 1446 1442 1437 1433 1432 1428 1426 1423 1421 1417 1414
1527 1525 1522 1518 1515 1513 1510 1508 1505 1502 1498 1494 1491 1488 1485 1482 1479 1477 1475 1472 1469 1467 1464 1462 1459 1457 1455 1453 1452 1450 1447 1444 1440 1437 1429 1427 1424 1421 1420 1418 1416 1412 1409
1521 1518 1514 1510 1506 1503 1500 1498 1496 1492 1488 1483 1481 1479 1476 1472 1470 1467 1464 1464 1462 1461 1460 1458 1457 1453 1451 1449 1446 1443 1440 1437 1434 1426 1422 1420 1417 1415 1412 1410 1407 1405 1404